Project,Study,Ord_Occ,Event_Num,Cast_ID,Date_Time_UTC,Date_Time_PST,Lat_Dec,Lon_Dec,Sta_ID,Line,Sta,Depth,Pressure,PrQ,Temp1,Temp1Q,Temp2,Temp2Q,TempAve,Salt1,Salt1Q,Salt1_Corr,Salt2,Salt2Q,Salt2_Corr,SaltAve_Corr,Ox1,Ox1Q,Ox1_CruiseCorr,Ox1_StaCorr,Ox2,Ox2Q,Ox2_CruiseCorr,Ox2_StaCorr,OxAve_StaCorr,Ox1uM,Ox1uM_CruiseCorr,Ox1uM_StaCorr,Ox2uM,Ox2uM_CruiseCorr,Ox2uM_StaCorr,OxAveuM_StaCorr,FluorV,FluorQ,EstChl_CruiseCorr,EstChl_StaCorr,ISUSV,ISUSQ,EstNO3_CruiseCorr,EstNO3_StaCorr,SigThetaTS1,SigThetaTS1Q,SigThetaTS2,SigThetaTS2Q,BAT,XMiss,TransQ,pH,pHQ,SPAR,SPARQ,PAR,PARQ,PoT1,PoT2,DynHt,SVA,OxSat1,OxSat2,BTL_Depth,BTL_Temp,SaltB,OxB,OxBuM,Chl-a,Phaeo,NO3,NO2,NH4,PO4,SIL
CalCOFI,2105SH,032,,2105_032d,10-May-2021 21:26:58,10-May-2021 13:26:58,32.66319,-121.03312,086.7 070.0,086.7,070.0,3.000,3.021,,14.3790,,14.3797,,14.3794,33.1108,,33.1120,33.1106,,33.1125,33.1123,5.6930,,6.0198,5.9669,5.7813,,6.0477,5.9779,5.9724,248.134,261.8981,261.2693,251.981,273.1139,261.7876,261.5285,0.0634,,0.2494,0.2031,2.6061,,1.1144,,24.6484,,24.6481,,,,,,,,,,,14.3786,14.3792,0.0003,328.333,97.630,99.145,3,14.401,33.1356,6.024,262.56,0.377,0.083,0.18,0.00,0.00,0.36,1.73
CalCOFI,2105SH,032,,2105_032d,10-May-2021 21:27:06,10-May-2021 13:27:06,32.66318,-121.03314,086.7 070.0,086.7,070.0,4.000,4.028,,14.3769,,14.3773,,14.3771,33.1112,,33.1124,33.1109,,33.1128,33.1126,5.7159,,6.0438,5.9906,5.7843,,6.0508,5.9809,5.9858,249.132,262.9414,262.3101,252.112,274.1918,261.9227,262.1164,0.0640,,0.2538,0.2054,2.6065,,1.1144,,24.6492,,24.6489,,,,,,,,,,,14.3764,14.3767,0.0048,328.291,98.019,99.191,,,,,,,,,,,,
CalCOFI,2105SH,032,,2105_032d,10-May-2021 21:27:09,10-May-2021 13:27:09,32.66316,-121.03316,086.7 070.0,086.7,070.0,5.000,5.035,,14.3748,,14.3755,,14.3752,33.1115,,33.1127,33.1113,,33.1132,33.1130,5.6995,,6.0266,5.9737,5.7842,,6.0507,5.9808,5.9773,248.415,262.1918,261.5623,252.108,273.4174,261.9185,261.7404,0.0644,,0.2568,0.2070,2.6065,,1.1144,,24.6499,,24.6496,,,,,,,,,,,14.3741,14.3747,0.0081,328.250,97.732,99.187,,,,,,,,,,,,
CalCOFI,2105SH,032,,2105_032d,10-May-2021 21:27:11,10-May-2021 13:27:11,32.66316,-121.03316,086.7 070.0,086.7,070.0,6.000,6.043,,14.3778,,14.3786,,14.3782,33.1113,,33.1125,33.1111,,33.1130,33.1128,5.7012,,6.0284,5.9754,5.7845,,6.0510,5.9811,5.9783,248.492,262.2723,261.6426,252.122,273.5006,261.9330,261.7878,0.0628,,0.2450,0.2007,2.6064,,1.1144,,24.6491,,24.6488,,,,,,,,,,,14.3769,14.3777,0.0114,328.355,97.768,99.198,,,,,,,,,,,,
CalCOFI,2105SH,032,,2105_032d,10-May-2021 21:27:12,10-May-2021 13:27:12,32.66315,-121.03316,086.7 070.0,086.7,070.0,7.000,7.050,,14.3766,,14.3767,,14.3767,33.1114,,33.1126,33.1113,,33.1132,33.1129,5.7066,,6.0341,5.9810,5.7823,,6.0487,5.9789,5.9800,248.726,262.5170,261.8867,252.026,273.7533,261.8340,261.8604,0.0677,,0.2810,0.2200,2.6063,,1.1144,,24.6495,,24.6494,,,,,,,,,,,14.3756,14.3757,0.0147,328.344,97.858,99.157,,,,,,,,,,,,
CalCOFI,2105SH,032,,2105_032d,10-May-2021 21:27:15,10-May-2021 13:27:15,32.66314,-121.03318,086.7 070.0,086.7,070.0,8.000,8.057,,14.3760,,14.3766,,14.3763,33.1114,,33.1126,33.1113,,33.1132,33.1129,5.7074,,6.0349,5.9818,5.7828,,6.0492,5.9794,5.9806,248.761,262.5535,261.9232,252.047,273.7911,261.8556,261.8894,0.0682,,0.2846,0.2220,2.6060,,1.1144,,24.6497,,24.6494,,,,,,,,,,,14.3749,14.3754,0.0180,328.357,97.871,99.165,,,,,,,,,,,,
CalCOFI,2105SH,032,,2105_032d,10-May-2021 21:27:17,10-May-2021 13:27:17,32.66314,-121.03318,086.7 070.0,086.7,070.0,9.000,9.064,,14.3766,,14.3770,,14.3768,33.1115,,33.1127,33.1113,,33.1132,33.1130,5.7189,,6.0469,5.9937,5.7800,,6.0463,5.9765,5.9851,249.260,263.0752,262.4436,251.927,274.3300,261.7319,262.0878,0.0699,,0.2971,0.2286,2.6057,,1.1144,,24.6497,,24.6494,,,,,,,,,,,14.3753,14.3757,0.0213,328.389,98.068,99.118,,,,,,,,,,,,
CalCOFI,2105SH,032,,2105_032d,10-May-2021 21:27:19,10-May-2021 13:27:19,32.66314,-121.03318,086.7 070.0,086.7,070.0,10.000,10.071,,14.3782,,14.3793,,14.3788,33.1116,,33.1128,33.1113,,33.1132,33.1130,5.7187,,6.0467,5.9935,5.7812,,6.0476,5.9778,5.9857,249.251,263.0658,262.4342,251.977,274.3203,261.7834,262.1088,0.0766,,0.3460,0.2550,2.6052,,1.1144,,24.6494,,24.6490,,,,,,,,,,,14.3768,14.3778,0.0246,328.446,98.068,99.143,10,14.396,,,262.21,0.399,0.130,0.14,0.030,0.00,0.35,1.56
CalCOFI,2105SH,032,,2105_032d,10-May-2021 21:27:20,10-May-2021 13:27:20,32.66314,-121.03320,086.7 070.0,086.7,070.0,11.000,11.078,,14.3800,,14.3799,,14.3800,33.1116,,33.1128,33.1114,,33.1133,33.1131,5.7094,,6.0370,5.9839,5.7765,,6.0427,5.9730,5.9785,248.846,262.6424,262.0118,251.774,273.8829,261.5740,261.7929,0.0793,,0.3657,0.2656,2.6049,,1.1144,,24.6491,,24.6489,,,,,,,,,,,14.3784,14.3783,0.0279,328.501,97.912,99.064,,,,,,,,,,,,
CalCOFI,2105SH,032,,2105_032d,10-May-2021 21:27:22,10-May-2021 13:27:22,32.66314,-121.03320,086.7 070.0,086.7,070.0,12.000,12.085,,14.3792,,14.3794,,14.3793,33.1117,,33.1129,33.1115,,33.1134,33.1132,5.6825,,6.0089,5.9561,5.7812,,6.0476,5.9778,5.9670,247.675,261.4182,260.7906,251.976,272.6182,261.7824,261.2865,0.0840,,0.3998,0.2841,2.6046,,1.1144,,24.6493,,24.6492,,,,,,,,,,,14.3775,14.3776,0.0313,328.508,97.450,99.143,,,,,,,,,,,,
CalCOFI,2105SH,032,,2105_032d,10-May-2021 21:27:24,10-May-2021 13:27:24,32.66314,-121.03320,086.7 070.0,086.7,070.0,13.000,13.092,,14.3792,,14.3798,,14.3795,33.1116,,33.1128,33.1113,,33.1132,33.1130,5.6841,,6.0105,5.9577,5.7815,,6.0479,5.9781,5.9679,247.747,261.4935,260.8657,251.991,272.6959,261.7979,261.3318,0.0859,,0.4136,0.2915,2.6042,,1.1144,,24.6493,,24.6490,,,,,,,,,,,14.3773,14.3779,0.0346,328.542,97.478,99.149,,,,,,,,,,,,
CalCOFI,2105SH,032,,2105_032d,10-May-2021 21:27:26,10-May-2021 13:27:26,32.66314,-121.03320,086.7 070.0,086.7,070.0,14.000,14.099,,14.3797,,14.3805,,14.3801,33.1116,,33.1128,33.1113,,33.1132,33.1130,5.7027,,6.0300,5.9770,5.7811,,6.0475,5.9777,5.9774,248.557,262.3403,261.7104,251.971,273.5708,261.7773,261.7439,0.0854,,0.4099,0.2896,2.6038,,1.1144,,24.6492,,24.6489,,,,,,,,,,,14.3777,14.3784,0.0379,328.575,97.798,99.143,,,,,,,,,,,,
CalCOFI,2105SH,032,,2105_032d,10-May-2021 21:27:28,10-May-2021 13:27:28,32.66314,-121.03322,086.7 070.0,086.7,070.0,15.000,15.107,,14.3752,,14.3753,,14.3753,33.1122,,33.1134,33.1116,,33.1135,33.1135,5.6982,,6.0253,5.9723,5.7825,,6.0489,5.9791,5.9757,248.358,262.1323,261.5029,252.032,273.3558,261.8401,261.6715,0.0899,,0.4425,0.3073,2.6036,,1.1144,,24.6507,,24.6502,,,,,,,,,,,14.3731,14.3732,0.0412,328.465,97.711,99.157,,,,,,,,,,,,
CalCOFI,2105SH,032,,2105_032d,10-May-2021 21:27:29,10-May-2021 13:27:29,32.66312,-121.03322,086.7 070.0,086.7,070.0,16.000,16.114,,14.3729,,14.3718,,14.3724,33.1123,,33.1135,33.1120,,33.1139,33.1137,5.6791,,6.0053,5.9525,5.7825,,6.0489,5.9791,5.9658,247.529,261.2656,260.6383,252.033,272.4605,261.8412,261.2398,0.0918,,0.4562,0.3147,2.6034,,1.1144,,24.6512,,24.6512,,,,,,,,,,,14.3706,14.3694,0.0445,328.441,97.381,99.150,,,,,,,,,,,,
CalCOFI,2105SH,032,,2105_032d,10-May-2021 21:27:31,10-May-2021 13:27:31,32.66312,-121.03322,086.7 070.0,086.7,070.0,17.000,17.121,,14.3724,,14.3727,,14.3726,33.1123,,33.1135,33.1119,,33.1138,33.1137,5.7098,,6.0374,5.9843,5.7793,,6.0456,5.9758,5.9801,248.866,262.6633,262.0327,251.892,273.9045,261.6958,261.8643,0.0916,,0.4548,0.3139,2.6031,,1.1144,,24.6514,,24.6510,,,,,,,,,,,14.3699,14.3702,0.0478,328.457,97.906,99.097,,,,,,,,,,,,
CalCOFI,2105SH,032,,2105_032d,10-May-2021 21:27:33,10-May-2021 13:27:33,32.66312,-121.03322,086.7 070.0,086.7,070.0,18.000,18.128,,14.3736,,14.3742,,14.3739,33.1121,,33.1133,33.1119,,33.1138,33.1136,5.6983,,6.0254,5.9724,5.7862,,6.0527,5.9829,5.9777,248.362,262.1364,261.5070,252.193,273.3602,262.0062,261.7566,0.0942,,0.4735,0.3242,2.6028,,1.1144,,24.6510,,24.6507,,,,,,,,,,,14.3710,14.3716,0.0511,328.519,97.710,99.218,,,,,,,,,,,,
CalCOFI,2105SH,032,,2105_032d,10-May-2021 21:27:35,10-May-2021 13:27:35,32.66312,-121.03324,086.7 070.0,086.7,070.0,19.000,19.135,,14.3761,,14.3768,,14.3765,33.1119,,33.1131,33.1117,,33.1136,33.1134,5.6983,,6.0254,5.9724,5.7777,,6.0439,5.9742,5.9733,248.362,262.1364,261.5070,251.823,273.3602,261.6246,261.5658,0.0951,,0.4800,0.3277,2.6026,,1.1144,,24.6504,,24.6501,,,,,,,,,,,14.3734,14.3741,0.0544,328.612,97.715,99.078,,,,,,,,,,,,
CalCOFI,2105SH,032,,2105_032d,10-May-2021 21:27:37,10-May-2021 13:27:37,32.66312,-121.03326,086.7 070.0,086.7,070.0,20.000,20.142,,14.3774,,14.3778,,14.3776,33.1119,,33.1131,33.1116,,33.1135,33.1133,5.6947,,6.0216,5.9687,5.7795,,6.0458,5.9760,5.9724,248.205,261.9723,261.3433,251.905,273.1906,261.7092,261.5263,0.0967,,0.4915,0.3340,2.6022,,1.1144,,24.6501,,24.6498,,,,,,,,,,,14.3745,14.3749,0.0577,328.666,97.655,99.112,,,,,,,,,,,,
CalCOFI,2105SH,032,,2105_032d,10-May-2021 21:27:39,10-May-2021 13:27:39,32.66310,-121.03326,086.7 070.0,086.7,070.0,21.000,21.150,,14.3606,,14.3576,,14.3591,33.1151,,33.1163,33.1141,,33.1160,33.1162,5.6984,,6.0255,5.9725,5.7856,,6.0521,5.9823,5.9774,248.366,262.1406,261.5112,252.169,273.3645,261.9815,261.7464,0.1000,,0.5152,0.3470,2.6019,,1.1144,,24.6562,,24.6560,,,,,,,,,,,14.3575,14.3545,0.0610,328.117,97.688,99.177,,,,,,,,,,,,
CalCOFI,2105SH,032,,2105_032d,10-May-2021 21:27:40,10-May-2021 13:27:40,32.66310,-121.03326,086.7 070.0,086.7,070.0,22.000,22.157,,14.3509,,14.3507,,14.3508,33.1166,,33.1178,33.1161,,33.1180,33.1179,5.6938,,6.0207,5.9678,5.7803,,6.0466,5.9768,5.9723,248.166,261.9315,261.3026,251.936,273.1485,261.7411,261.5219,0.1035,,0.5403,0.3607,2.6018,,1.1144,,24.6594,,24.6591,,,,,,,,,,,14.3478,14.3475,0.0643,327.838,97.591,99.073,,,,,,,,,,,,
CalCOFI,2105SH,032,,2105_032d,10-May-2021 21:27:41,10-May-2021 13:27:41,32.66310,-121.03326,086.7 070.0,086.7,070.0,23.000,23.164,,14.3454,,14.3453,,14.3454,33.1187,,33.1199,33.1180,,33.1199,33.1199,5.7106,,6.0382,5.9851,5.7887,,6.0553,5.9854,5.9853,248.899,262.6978,262.0671,252.302,273.9401,262.1187,262.0929,0.1041,,0.5446,0.3631,2.6016,,1.1144,,24.6622,,24.6617,,,,,,,,,,,14.3421,14.3420,0.0676,327.602,97.871,99.208,,,,,,,,,,,,
CalCOFI,2105SH,032,,2105_032d,10-May-2021 21:27:43,10-May-2021 13:27:43,32.66310,-121.03328,086.7 070.0,086.7,070.0,24.000,24.171,,14.3424,,14.3429,,14.3427,33.1197,,33.1209,33.1191,,33.1210,33.1210,5.7008,,6.0280,5.9750,5.7852,,6.0517,5.9818,5.9784,248.472,262.2514,261.6218,252.146,273.4790,261.9578,261.7898,0.1100,,0.5867,0.3863,2.6014,,1.1144,,24.6636,,24.6630,,,,,,,,,,,14.3390,14.3395,0.0709,327.494,97.697,99.143,,,,,,,,,,,,
CalCOFI,2105SH,032,,2105_032d,10-May-2021 21:27:46,10-May-2021 13:27:46,32.66310,-121.03328,086.7 070.0,086.7,070.0,25.000,25.178,,14.3364,,14.3367,,14.3366,33.1226,,33.1238,33.1221,,33.1240,33.1239,5.6977,,6.0248,5.9718,5.7882,,6.0548,5.9849,5.9784,248.332,262.1051,261.4758,252.278,273.3278,262.0939,261.7849,0.1085,,0.5760,0.3804,2.6011,,1.1144,,24.6672,,24.6667,,,,,,,,,,,14.3328,14.3331,0.0742,327.182,97.633,99.184,,,,,,,,,,,,
CalCOFI,2105SH,032,,2105_032d,10-May-2021 21:27:48,10-May-2021 13:27:48,32.66309,-121.03328,086.7 070.0,086.7,070.0,26.000,26.185,,14.3251,,14.3231,,14.3241,33.1281,,33.1293,33.1283,,33.1302,33.1298,5.6722,,5.9981,5.9454,5.7879,,6.0545,5.9846,5.9650,247.222,260.9447,260.3181,252.262,272.1289,262.0774,261.1978,0.1123,,0.6031,0.3953,2.6011,,1.1144,,24.6738,,24.6744,,,,,,,,,,,14.3213,14.3193,0.0775,326.577,97.178,99.155,,,,,,,,,,,,
CalCOFI,2105SH,032,,2105_032d,10-May-2021 21:27:49,10-May-2021 13:27:49,32.66308,-121.03328,086.7 070.0,086.7,070.0,27.000,27.193,,14.3058,,14.3073,,14.3066,33.1366,,33.1378,33.1353,,33.1372,33.1375,5.7129,,6.0407,5.9875,5.7924,,6.0592,5.9892,5.9884,248.990,262.7929,262.1620,252.458,274.0384,262.2796,262.2208,0.1127,,0.6059,0.3969,2.6010,,1.1144,,24.6845,,24.6831,,,,,,,,,,,14.3019,14.3034,0.0808,325.593,97.841,99.206,,,,,,,,,,,,
CalCOFI,2105SH,032,,2105_032d,10-May-2021 21:27:51,10-May-2021 13:27:51,32.66308,-121.03330,086.7 070.0,086.7,070.0,28.000,28.200,,14.2981,,14.2988,,14.2985,33.1399,,33.1411,33.1389,,33.1408,33.1410,5.7060,,6.0334,5.9804,5.7993,,6.0663,5.9963,5.9884,248.692,262.4814,261.8512,252.758,273.7166,262.5890,262.2201,0.1158,,0.6280,0.4091,2.6010,,1.1144,,24.6886,,24.6877,,,,,,,,,,,14.2940,14.2947,0.0841,325.226,97.711,99.309,,,,,,,,,,,,
CalCOFI,2105SH,032,,2105_032d,10-May-2021 21:27:52,10-May-2021 13:27:52,32.66308,-121.03330,086.7 070.0,086.7,070.0,29.000,29.207,,14.2898,,14.2898,,14.2898,33.1436,,33.1448,33.1430,,33.1449,33.1449,5.6971,,6.0241,5.9712,5.7925,,6.0593,5.9893,5.9803,248.303,262.0748,261.4455,252.459,273.2964,262.2806,261.8631,0.1182,,0.6450,0.4185,2.6010,,1.1144,,24.6933,,24.6928,,,,,,,,,,,14.2856,14.2857,0.0874,324.810,97.544,99.177,,,,,,,,,,,,
CalCOFI,2105SH,032,,2105_032d,10-May-2021 21:27:56,10-May-2021 13:27:56,32.66308,-121.03330,086.7 070.0,086.7,070.0,30.000,30.214,,14.2820,,14.2821,,14.2821,33.1470,,33.1482,33.1464,,33.1483,33.1483,5.7320,,6.0606,6.0073,5.8012,,6.0683,5.9982,6.0028,249.819,263.6596,263.0266,252.835,274.9337,262.6684,262.8475,0.1224,,0.6747,0.4350,2.6013,,1.1144,,24.6975,,24.6971,,,,,,,,,,,14.2777,14.2777,0.0908,324.433,98.127,99.312,30,14.236,,,263.32,0.529,0.177,0.34,0.044,0.00,0.36,1.61
CalCOFI,2105SH,032,,2105_032d,10-May-2021 21:27:58,10-May-2021 13:27:58,32.66308,-121.03330,086.7 070.0,086.7,070.0,31.000,31.222,,14.2639,,14.2650,,14.2645,33.1554,,33.1566,33.1541,,33.1560,33.1563,5.7294,,6.0579,6.0046,5.8088,,6.0762,6.0060,6.0053,249.706,263.5415,262.9088,253.166,274.8117,263.0099,262.9594,0.1246,,0.6902,0.4437,2.6016,,1.1144,,24.7079,,24.7067,,,,,,,,,,,14.2595,14.2605,0.0942,323.478,98.053,99.413,,,,,,,,,,,,
CalCOFI,2105SH,032,,2105_032d,10-May-2021 21:27:58,10-May-2021 13:27:58,32.66308,-121.03330,086.7 070.0,086.7,070.0,32.000,32.229,,14.2535,,14.2527,,14.2531,33.1605,,33.1617,33.1595,,33.1614,33.1616,5.7345,,6.0632,6.0099,5.8077,,6.0750,6.0048,6.0074,249.928,263.7735,263.1403,253.119,275.0514,262.9614,263.0509,0.1268,,0.7057,0.4523,2.6017,,1.1144,,24.7140,,24.7134,,,,,,,,,,,14.2489,14.2481,0.0975,322.922,98.123,99.374,,,,,,,,,,,,
CalCOFI,2105SH,032,,2105_032d,10-May-2021 21:27:59,10-May-2021 13:27:59,32.66307,-121.03331,086.7 070.0,086.7,070.0,33.000,33.236,,14.2388,,14.2386,,14.2387,33.1669,,33.1681,33.1660,,33.1679,33.1680,5.7426,,6.0717,6.0183,5.8099,,6.0773,6.0071,6.0127,250.277,264.1384,263.5043,253.213,275.4284,263.0583,263.2813,0.1312,,0.7367,0.4696,2.6018,,1.1144,,24.7221,,24.7214,,,,,,,,,,,14.2340,14.2339,0.1007,322.181,98.236,99.387,,,,,,,,,,,,
CalCOFI,2105SH,032,,2105_032d,10-May-2021 21:28:01,10-May-2021 13:28:01,32.66306,-121.03332,086.7 070.0,086.7,070.0,34.000,34.243,,14.2341,,14.2332,,14.2337,33.1684,,33.1696,33.1682,,33.1701,33.1699,5.7125,,6.0402,5.9871,5.8124,,6.0799,6.0097,5.9984,248.966,262.7679,262.1370,253.320,274.0125,263.1687,262.6529,0.1341,,0.7571,0.4810,2.6022,,1.1144,,24.7243,,24.7243,,,,,,,,,,,14.2292,14.2283,0.1040,322.003,97.713,99.420,,,,,,,,,,,,
CalCOFI,2105SH,032,,2105_032d,10-May-2021 21:28:04,10-May-2021 13:28:04,32.66306,-121.03333,086.7 070.0,086.7,070.0,35.000,35.251,,14.2226,,14.2217,,14.2222,33.1732,,33.1744,33.1725,,33.1744,33.1744,5.7230,,6.0512,5.9980,5.8139,,6.0814,6.0112,6.0046,249.420,263.2425,262.6105,253.382,274.5028,263.2327,262.9216,0.1371,,0.7781,0.4928,2.6023,,1.1144,,24.7303,,24.7300,,,,,,,,,,,14.2175,14.2167,0.1072,321.454,97.871,99.424,,,,,,,,,,,,
CalCOFI,2105SH,032,,2105_032d,10-May-2021 21:28:07,10-May-2021 13:28:07,32.66306,-121.03334,086.7 070.0,086.7,070.0,36.000,36.258,,14.1999,,14.2012,,14.2006,33.1781,,33.1793,33.1767,,33.1786,33.1790,5.7410,,6.0700,6.0166,5.7988,,6.0658,5.9957,6.0062,250.204,264.0621,263.4281,252.723,275.3495,262.5529,262.9905,0.1436,,0.8234,0.5183,2.6018,,1.1144,,24.7389,,24.7375,,,,,,,,,,,14.1947,14.1960,0.1104,320.664,98.138,99.128,,,,,,,,,,,,
CalCOFI,2105SH,032,,2105_032d,10-May-2021 21:28:08,10-May-2021 13:28:08,32.66305,-121.03334,086.7 070.0,086.7,070.0,37.000,37.265,,14.1875,,14.1879,,14.1877,33.1807,,33.1819,33.1792,,33.1811,33.1815,5.7216,,6.0497,5.9965,5.7960,,6.0629,5.9929,5.9947,249.355,263.1745,262.5427,252.598,274.4326,262.4240,262.4834,0.1465,,0.8436,0.5297,2.6015,,1.1144,,24.7435,,24.7423,,,,,,,,,,,14.1822,14.1826,0.1137,320.252,97.783,99.054,,,,,,,,,,,,
CalCOFI,2105SH,032,,2105_032d,10-May-2021 21:28:09,10-May-2021 13:28:09,32.66304,-121.03334,086.7 070.0,086.7,070.0,38.000,38.272,,14.1446,,14.1420,,14.1433,33.1836,,33.1848,33.1764,,33.1783,33.1816,5.7299,,6.0584,6.0051,5.8020,,6.0691,5.9990,6.0021,249.716,263.5519,262.9192,252.859,274.8225,262.6932,262.8062,0.1479,,0.8533,0.5352,2.6012,,1.1144,,24.7548,,24.7498,,,,,,,,,,,14.1391,14.1366,0.1169,319.207,97.842,99.063,,,,,,,,,,,,
CalCOFI,2105SH,032,,2105_032d,10-May-2021 21:28:10,10-May-2021 13:28:10,32.66304,-121.03334,086.7 070.0,086.7,070.0,39.000,39.280,,14.0674,,14.0660,,14.0667,33.1773,,33.1785,33.1725,,33.1744,33.1765,5.7400,,6.0690,6.0156,5.8168,,6.0844,6.0141,6.0149,250.154,264.0098,263.3760,253.500,275.2955,263.3544,263.3652,0.1593,,0.9322,0.5801,2.6008,,1.1144,,24.7660,,24.7625,,,,,,,,,,,14.0619,14.0604,0.1201,318.162,97.858,99.160,,,,,,,,,,,,
CalCOFI,2105SH,032,,2105_032d,10-May-2021 21:28:13,10-May-2021 13:28:13,32.66304,-121.03335,086.7 070.0,086.7,070.0,40.000,40.287,,14.0318,,14.0269,,14.0294,33.1769,,33.1781,33.1754,,33.1773,33.1777,5.7432,,6.0723,6.0189,5.8190,,6.0867,6.0164,6.0177,250.293,264.1551,263.5210,253.593,275.4456,263.4503,263.4857,0.1576,,0.9205,0.5734,2.5987,,1.1144,,24.7731,,24.7729,,,,,,,,,,,14.0261,14.0212,0.1233,317.509,97.842,99.121,,,,,,,,,,,,
CalCOFI,2105SH,032,,2105_032d,10-May-2021 21:28:16,10-May-2021 13:28:16,32.66304,-121.03334,086.7 070.0,086.7,070.0,41.000,41.294,,14.0208,,14.0213,,14.0211,33.1780,,33.1792,33.1766,,33.1785,33.1789,5.7154,,6.0433,5.9901,5.8076,,6.0749,6.0047,5.9974,249.078,262.8849,262.2538,253.097,274.1334,262.9387,262.5963,0.1530,,0.8887,0.5553,2.5963,,1.1144,,24.7763,,24.7750,,,,,,,,,,,14.0149,14.0154,0.1266,317.238,97.346,98.917,,,,,,,,,,,,
CalCOFI,2105SH,032,,2105_032d,10-May-2021 21:28:17,10-May-2021 13:28:17,32.66302,-121.03336,086.7 070.0,086.7,070.0,42.000,42.301,,14.0181,,14.0188,,14.0185,33.1803,,33.1815,33.1794,,33.1813,33.1814,5.7121,,6.0398,5.9867,5.7984,,6.0654,5.9953,5.9910,248.934,262.7344,262.1036,252.693,273.9779,262.5220,262.3128,0.1619,,0.9501,0.5903,2.5950,,1.1144,,24.7786,,24.7778,,,,,,,,,,,14.0121,14.0128,0.1298,317.043,97.286,98.756,,,,,,,,,,,,
CalCOFI,2105SH,032,,2105_032d,10-May-2021 21:28:18,10-May-2021 13:28:18,32.66302,-121.03336,086.7 070.0,086.7,070.0,43.000,43.309,,14.0084,,14.0076,,14.0080,33.1847,,33.1859,33.1830,,33.1849,33.1854,5.7174,,6.0454,5.9922,5.7926,,6.0594,5.9894,5.9908,249.164,262.9748,262.3435,252.443,274.2263,262.2641,262.3038,0.1733,,1.0282,0.6351,2.5937,,1.1144,,24.7841,,24.7829,,,,,,,,,,,14.0022,14.0015,0.1330,316.552,97.360,98.639,,,,,,,,,,,,
CalCOFI,2105SH,032,,2105_032d,10-May-2021 21:28:19,10-May-2021 13:28:19,32.66302,-121.03336,086.7 070.0,086.7,070.0,44.000,44.316,,13.9629,,13.9609,,13.9619,33.1861,,33.1873,33.1795,,33.1814,33.1844,5.7222,,6.0504,5.9972,5.8014,,6.0685,5.9984,5.9978,249.369,263.1892,262.5573,252.822,274.4477,262.6550,262.6062,0.1915,,1.1516,0.7066,2.5925,,1.1144,,24.7945,,24.7899,,,,,,,,,,,13.9567,13.9547,0.1362,315.578,97.352,98.692,,,,,,,,,,,,
CalCOFI,2105SH,032,,2105_032d,10-May-2021 21:28:21,10-May-2021 13:28:21,32.66302,-121.03336,086.7 070.0,086.7,070.0,45.000,45.323,,13.8989,,13.8961,,13.8975,33.1796,,33.1808,33.1759,,33.1778,33.1793,5.7163,,6.0442,5.9910,5.7896,,6.0563,5.9863,5.9887,249.110,262.9184,262.2872,252.304,274.1680,262.1207,262.2040,0.1665,,0.9817,0.6084,2.5885,,1.1144,,24.8028,,24.8005,,,,,,,,,,,13.8925,13.8898,0.1393,314.819,97.121,98.359,45,13.723,,,261.86,0.532,0.218,1.06,0.089,0.16,0.42,1.81
CalCOFI,2105SH,032,,2105_032d,10-May-2021 21:28:25,10-May-2021 13:28:25,32.66302,-121.03334,086.7 070.0,086.7,070.0,46.000,46.330,,13.8180,,13.8165,,13.8173,33.1748,,33.1760,33.1690,,33.1709,33.1735,5.6658,,5.9914,5.9388,5.7399,,6.0048,5.9355,5.9372,246.907,260.6154,259.9896,250.139,271.7887,259.8876,259.9386,0.1603,,0.9391,0.5840,2.5814,,1.1144,,24.8157,,24.8116,,,,,,,,,,,13.8115,13.8100,0.1425,313.608,96.102,97.353,,,,,,,,,,,,
CalCOFI,2105SH,032,,2105_032d,10-May-2021 21:28:26,10-May-2021 13:28:26,32.66301,-121.03335,086.7 070.0,086.7,070.0,47.000,47.338,,13.7376,,13.7319,,13.7348,33.1665,,33.1677,33.1543,,33.1562,33.1620,5.6614,,5.9868,5.9342,5.7504,,6.0157,5.9463,5.9403,246.713,260.4126,259.7873,250.593,271.5792,260.3559,260.0716,0.1540,,0.8956,0.5592,2.5781,,1.1144,,24.8258,,24.8175,,,,,,,,,,,13.7310,13.7253,0.1456,312.670,95.866,97.354,,,,,,,,,,,,
CalCOFI,2105SH,032,,2105_032d,10-May-2021 21:28:27,10-May-2021 13:28:27,32.66300,-121.03336,086.7 070.0,086.7,070.0,48.000,48.345,,13.5360,,13.5332,,13.5346,33.1427,,33.1439,33.1319,,33.1338,33.1389,5.6651,,5.9907,5.9381,5.7704,,6.0364,5.9667,5.9524,246.871,260.5777,259.9520,251.462,271.7499,261.2522,260.6021,0.1351,,0.7641,0.4849,2.5743,,1.1144,,24.8485,,24.8406,,,,,,,,,,,13.5294,13.5266,0.1488,310.522,95.521,97.284,,,,,,,,,,,,
CalCOFI,2105SH,032,,2105_032d,10-May-2021 21:28:30,10-May-2021 13:28:30,32.66300,-121.03336,086.7 070.0,086.7,070.0,49.000,49.352,,13.5083,,13.5104,,13.5094,33.1367,,33.1379,33.1346,,33.1365,33.1372,5.7039,,6.0312,5.9782,5.7673,,6.0332,5.9636,5.9709,248.561,262.3445,261.7146,251.323,273.5751,261.1089,261.4118,0.1315,,0.7388,0.4708,2.5674,,1.1144,,24.8495,,24.8474,,,,,,,,,,,13.5015,13.5036,0.1519,310.450,96.117,97.188,,,,,,,,,,,,
CalCOFI,2105SH,032,,2105_032d,10-May-2021 21:28:32,10-May-2021 13:28:32,32.66299,-121.03336,086.7 070.0,086.7,070.0,50.000,50.360,,13.5286,,13.5291,,13.5289,33.1424,,33.1436,33.1402,,33.1421,33.1429,5.6659,,5.9915,5.9389,5.7529,,6.0183,5.9488,5.9439,246.903,260.6112,259.9854,250.696,271.7844,260.4621,260.2238,0.1337,,0.7542,0.4794,2.5626,,1.1144,,24.8498,,24.8480,,,,,,,,,,,13.5217,13.5221,0.1550,310.449,95.519,96.986,,,,,,,,,,,,
CalCOFI,2105SH,032,,2105_032d,10-May-2021 21:28:33,10-May-2021 13:28:33,32.66298,-121.03336,086.7 070.0,086.7,070.0,51.000,51.367,,13.5317,,13.5318,,13.5318,33.1434,,33.1446,33.1419,,33.1438,33.1442,5.6886,,6.0152,5.9624,5.7606,,6.0262,5.9567,5.9596,247.892,261.6451,261.0169,251.029,272.8525,260.8056,260.9113,0.1392,,0.7927,0.5010,2.5603,,1.1144,,24.8500,,24.8488,,,,,,,,,,,13.5246,13.5247,0.1582,310.461,95.908,97.121,51,13.201,,5.926,258.23,0.436,0.200,2.19,0.141,0.28,0.50,2.33
CalCOFI,2105SH,032,,2105_032d,10-May-2021 21:28:33,10-May-2021 13:28:33,32.66298,-121.03336,086.7 070.0,086.7,070.0,52.000,52.374,,13.5301,,13.5291,,13.5296,33.1469,,33.1481,33.1439,,33.1458,33.1470,5.6958,,6.0228,5.9698,5.7630,,6.0287,5.9592,5.9645,248.208,261.9754,261.3464,251.133,273.1938,260.9129,261.1297,0.1384,,0.7872,0.4979,2.5579,,1.1144,,24.8530,,24.8509,,,,,,,,,,,13.5228,13.5219,0.1613,310.197,96.029,97.157,,,,,,,,,,,,
CalCOFI,2105SH,032,,2105_032d,10-May-2021 21:28:37,10-May-2021 13:28:37,32.66298,-121.03337,086.7 070.0,086.7,070.0,53.000,53.382,,13.3912,,13.3836,,13.3874,33.1361,,33.1373,33.1241,,33.1260,33.1317,5.6843,,6.0107,5.9579,5.7312,,5.9958,5.9267,5.9423,247.700,261.4444,260.8166,249.746,272.6452,259.4822,260.1494,0.1301,,0.7290,0.4653,2.5476,,1.1144,,24.8726,,24.8649,,,,,,,,,,,13.3839,13.3763,0.1656,308.342,95.557,96.323,,,,,,,,,,,,
CalCOFI,2105SH,032,,2105_032d,10-May-2021 21:28:40,10-May-2021 13:28:40,32.66298,-121.03338,086.7 070.0,086.7,070.0,54.000,54.389,,13.1853,,13.1796,,13.1825,33.1081,,33.1093,33.0939,,33.0958,33.1026,5.6528,,5.9778,5.9253,5.7094,,5.9732,5.9044,5.9149,246.321,260.0028,259.3784,248.793,271.1559,258.4992,258.9388,0.1164,,0.6322,0.4114,2.5391,,1.1144,,24.8922,,24.8824,,,,,,,,,,,13.1780,13.1722,0.1699,306.488,94.608,95.537,,,,,,,,,,,,
CalCOFI,2105SH,032,,2105_032d,10-May-2021 21:28:41,10-May-2021 13:28:41,32.66298,-121.03338,086.7 070.0,086.7,070.0,55.000,55.396,,13.0884,,13.0867,,13.0876,33.0922,,33.0934,33.0826,,33.0845,33.0890,5.6232,,5.9468,5.8947,5.6821,,5.9449,5.8765,5.8856,245.029,258.6521,258.0309,247.597,269.7605,257.2656,257.6483,0.1099,,0.5860,0.3859,2.5339,,1.1144,,24.8992,,24.8921,,,,,,,,,,,13.0809,13.0793,0.1731,305.839,93.916,94.890,,,,,,,,,,,,